Location: Unspecified
(0.0000°N, 0.0000°E)
Time: 19:20:57
(UTC+00:00)

deb r/b Ablestar - Pass Details

Date: 08 March 2026
Orbit: 662 x 808 km, 66.5° (Epoch: 17 April)

Event Time Altitude Azimuth Distance (km) Brightness Sun altitude
Exits shadow 03:59:56 15° 170° (S) 2,009 ? -32.6°
Drops below altitude 10° 04:00:51 10° 169° (SSE) 2,353 ? -32.4°
Sets 04:03:16 0° 166° (SSE) 3,267 ? -31.8°
